Home > Weather > Chatham-Kent > Past weeks

Flag for Canada Past Weather in Chatham-Kent, Ontario, Canada — Yesterday and Last 2 Weeks

Now
74 °F

Mild.


Feels Like: 72 °F
Forecast: 68 / 80 °F
Wind: 5 mph from Northeast

Location: Erieau

Current Time: Aug 27, 2016 at 6:06:14 AM

Latest Report: Aug 27, 2016 at 5:00 AM


Visibility: N/A

Pressure: 30.14 "Hg

Humidity: 92%

Dew Point: 71 °F

Location of Chatham-KentLocation

Past Weather in Chatham-Kent — Graph

°F

Chatham-Kent Temperature Yesterday

Maximum temperature yesterday: 78 °F (at 3:00 PM)
Minimum temperature yesterday: 66 °F (at 7:00 AM)
Average temperature yesterday: 74 °F

High & Low Weather Summary for the Past Weeks

 TemperatureHumidityPressure
High84 °F (Aug 12, 3:00 PM)97% (Aug 16, 3:00 AM)30.27 "Hg (Aug 16, 3:00 AM)
Low62 °F (Aug 22, 4:00 AM)48% (Aug 21, 5:00 PM)29.61 "Hg (Aug 21, 12:00 AM)
Average75 °F79%29.98 "Hg
* Reported Aug 12 5:00 AM — Aug 27 5:00 AM, Chatham-Kent, Weather by CustomWeather, © 2016

Note: Actual official high and low records may vary slightly from our data, if they occured in-between our weather recording intervals... More about our weather records

Advertising

Chatham-Kent Weather History for the Previous 24 Hours

Scroll right to see more
 ConditionsComfort  
Time TempWeatherWind HumidityBarometerVisibility
5:00 AM
Sat, Aug 27
74 °FMild.5 mph92%30.14 "HgN/A
4:00 AM73 °FMild.5 mph92%30.14 "HgN/A
3:00 AM73 °FMild.3 mph87%30.14 "HgN/A
2:00 AM72 °FMild.2 mph89%30.11 "HgN/A
1:00 AM75 °FMild.1 mph77%30.13 "HgN/A
12:00 AM76 °FMild.3 mph74%30.13 "HgN/A
11:00 PM
Fri, Aug 26
76 °FMild.5 mph73%30.14 "HgN/A
10:00 PM76 °FMild.2 mph72%30.13 "HgN/A
9:00 PM76 °FMild.3 mph69%30.11 "HgN/A
8:00 PM74 °FMild.6 mph73%30.10 "HgN/A
7:00 PM77 °FMild.7 mph71%30.11 "HgN/A
6:00 PM77 °FWarm.7 mph69%30.09 "HgN/A
5:00 PM77 °FWarm.9 mph62%30.11 "HgN/A
4:00 PM78 °FWarm.9 mph65%30.11 "HgN/A
3:00 PM78 °FWarm.7 mph66%30.11 "HgN/A
2:00 PM78 °FWarm.7 mph70%30.11 "HgN/A
1:00 PM78 °FWarm.6 mph71%30.12 "HgN/A
12:00 PM77 °FMild.3 mph69%30.13 "HgN/A
11:00 AM75 °FMild.5 mph68%30.13 "HgN/A
10:00 AM74 °FMild.3 mph65%30.12 "HgN/A
9:00 AM71 °FMild.2 mph69%30.11 "HgN/A
8:00 AM69 °FMild.2 mph74%30.09 "HgN/A
7:00 AM66 °FMild.3 mph82%30.08 "HgN/A
6:00 AM67 °FMild.3 mph82%30.06 "HgN/A
Weather by CustomWeather, © 2016

See weather overviewHow to use our weather pages